Time,TemperatureF,DewpointF,PressureIn,WindDirection,WindDirectionDegrees,WindSpeedMPH,WindSpeedGustMPH,Humidity,HourlyPrecipIn,Conditions,Clouds,dailyrainin,SoftwareType,DateUTC
2013-06-11 00:00:00,81.2,77.0,29.93,SSW,202,3.0,10.0,87,0.00,,,-99.99,WeatherLink 5.6,2013-06-11 05:00:00,
2013-06-11 00:30:00,80.7,76.5,29.93,SSW,202,1.0,7.0,87,0.00,,,-99.99,WeatherLink 5.6,2013-06-11 05:30:00,
2013-06-11 01:00:00,80.5,76.6,29.93,SSE,157,0.0,5.0,88,0.00,,,-99.99,WeatherLink 5.6,2013-06-11 06:00:00,
2013-06-11 01:30:00,80.7,77.2,29.93,SW,225,1.0,7.0,89,0.00,,,-99.99,WeatherLink 5.6,2013-06-11 06:30:00,
2013-06-11 02:00:00,80.5,76.6,29.93,SSW,202,2.0,7.0,88,0.00,,,-99.99,WeatherLink 5.6,2013-06-11 07:00:00,
2013-06-11 02:30:00,80.1,76.2,29.93,SSW,202,1.0,5.0,88,0.00,,,-99.99,WeatherLink 5.6,2013-06-11 07:30:00,
2013-06-11 03:00:00,79.8,75.6,29.93,SSW,202,1.0,5.0,87,0.00,,,-99.99,WeatherLink 5.6,2013-06-11 08:00:00,
2013-06-11 03:30:00,79.2,75.3,29.94,SSW,202,0.0,1.0,88,0.00,,,-99.99,WeatherLink 5.6,2013-06-11 08:30:00,
2013-06-11 04:00:00,78.6,75.1,29.94,North,-999,0.0,0.0,89,0.00,,,-99.99,WeatherLink 5.6,2013-06-11 09:00:00,
2013-06-11 04:30:00,78.1,75.3,29.95,North,-999,0.0,0.0,91,0.00,,,-99.99,WeatherLink 5.6,2013-06-11 09:30:00,
2013-06-11 05:00:00,77.6,75.1,29.95,North,-999,0.0,0.0,92,0.00,,,-99.99,WeatherLink 5.6,2013-06-11 10:00:00,
2013-06-11 05:30:00,76.8,74.6,29.95,North,-999,0.0,0.0,93,0.00,,,-99.99,WeatherLink 5.6,2013-06-11 10:30:00,
2013-06-11 06:00:00,76.5,74.6,29.96,North,-999,0.0,0.0,94,0.00,,,-99.99,WeatherLink 5.6,2013-06-11 11:00:00,
2013-06-11 06:30:00,76.7,75.2,29.97,North,-999,0.0,0.0,95,0.00,,,-99.99,WeatherLink 5.6,2013-06-11 11:30:00,
2013-06-11 07:00:00,77.6,76.1,29.98,North,-999,0.0,0.0,95,0.00,,,-99.99,WeatherLink 5.6,2013-06-11 12:00:00,
2013-06-11 07:30:00,78.5,76.6,29.99,North,-999,0.0,0.0,94,0.00,,,-99.99,WeatherLink 5.6,2013-06-11 12:30:00,
2013-06-11 08:00:00,80.9,77.7,30.00,SSW,202,0.0,3.0,90,0.00,,,-99.99,WeatherLink 5.6,2013-06-11 13:00:00,
2013-06-11 08:30:00,83.0,76.2,30.00,West,270,0.0,5.0,80,0.00,,,-99.99,WeatherLink 5.6,2013-06-11 13:30:00,
2013-06-11 09:00:00,84.5,76.5,30.00,SW,225,0.0,6.0,77,0.00,,,-99.99,WeatherLink 5.6,2013-06-11 14:00:00,
2013-06-11 09:30:00,83.6,76.0,30.00,WSW,247,2.0,7.0,78,0.00,,,-99.99,WeatherLink 5.6,2013-06-11 14:30:00,
2013-06-11 10:00:00,86.5,76.4,29.99,WNW,292,0.0,6.0,72,0.00,,,-99.99,WeatherLink 5.6,2013-06-11 15:00:00,
2013-06-11 10:30:00,88.6,76.2,29.99,SW,225,0.0,4.0,67,0.00,,,-99.99,WeatherLink 5.6,2013-06-11 15:30:00,
2013-06-11 11:00:00,90.5,74.7,30.00,WNW,292,0.0,6.0,60,0.00,,,-99.99,WeatherLink 5.6,2013-06-11 16:00:00,
2013-06-11 11:30:00,89.5,72.3,30.00,West,270,0.0,5.0,57,0.00,,,-99.99,WeatherLink 5.6,2013-06-11 16:30:00,
2013-06-11 12:00:00,89.3,76.4,29.98,SSW,202,3.0,11.0,66,0.00,,,-99.99,WeatherLink 5.6,2013-06-11 17:00:00,
2013-06-11 12:30:00,88.4,76.0,29.98,SSW,202,6.0,14.0,67,0.00,,,-99.99,WeatherLink 5.6,2013-06-11 17:30:00,
2013-06-11 13:00:00,88.8,76.9,29.97,SSW,202,5.0,14.0,68,0.00,,,-99.99,WeatherLink 5.6,2013-06-11 18:00:00,
2013-06-11 13:30:00,89.0,75.2,29.97,SSW,202,4.0,12.0,64,0.00,,,-99.99,WeatherLink 5.6,2013-06-11 18:30:00,
2013-06-11 14:00:00,89.9,75.6,29.97,SSW,202,5.0,12.0,63,0.00,,,-99.99,WeatherLink 5.6,2013-06-11 19:00:00,
2013-06-11 14:30:00,88.8,74.1,29.96,SSW,202,6.0,14.0,62,0.00,,,-99.99,WeatherLink 5.6,2013-06-11 19:30:00,
2013-06-11 15:00:00,89.7,74.9,29.95,SSW,202,5.0,13.0,62,0.00,,,-99.99,WeatherLink 5.6,2013-06-11 20:00:00,
2013-06-11 15:30:00,89.5,74.3,29.95,SSW,202,5.0,16.0,61,0.00,,,-99.99,WeatherLink 5.6,2013-06-11 20:30:00,
2013-06-11 16:00:00,89.0,75.2,29.94,SSW,202,6.0,16.0,64,0.00,,,-99.99,WeatherLink 5.6,2013-06-11 21:00:00,
2013-06-11 16:30:00,89.0,73.3,29.93,SSW,202,6.0,18.0,60,0.00,,,-99.99,WeatherLink 5.6,2013-06-11 21:30:00,
2013-06-11 17:00:00,88.4,73.2,29.92,SSW,202,6.0,13.0,61,0.00,,,-99.99,WeatherLink 5.6,2013-06-11 22:00:00,
2013-06-11 17:30:00,87.6,75.3,29.92,SSW,202,6.0,16.0,67,0.00,,,-99.99,WeatherLink 5.6,2013-06-11 22:30:00,
2013-06-11 18:00:00,87.0,74.3,29.92,SSW,202,5.0,13.0,66,0.00,,,-99.99,WeatherLink 5.6,2013-06-11 23:00:00,
2013-06-11 18:30:00,85.3,74.0,29.93,SSW,202,3.0,12.0,69,0.00,,,-99.99,WeatherLink 5.6,2013-06-11 23:30:00,
2013-06-11 19:00:00,85.1,74.6,29.92,SSW,202,3.0,10.0,71,0.00,,,-99.99,WeatherLink 5.6,2013-06-12 00:00:00,
2013-06-11 19:30:00,84.3,74.7,29.93,SSW,202,2.0,7.0,73,0.00,,,-99.99,WeatherLink 5.6,2013-06-12 00:30:00,
2013-06-11 20:00:00,83.8,75.0,29.93,SSW,202,3.0,10.0,75,0.00,,,-99.99,WeatherLink 5.6,2013-06-12 01:00:00,
2013-06-11 20:30:00,83.4,74.6,29.93,SSW,202,2.0,9.0,75,0.00,,,-99.99,WeatherLink 5.6,2013-06-12 01:30:00,
2013-06-11 21:00:00,83.2,74.8,29.94,SSW,202,1.0,7.0,76,0.00,,,-99.99,WeatherLink 5.6,2013-06-12 02:00:00,
2013-06-11 21:30:00,83.0,75.4,29.95,SSW,202,1.0,7.0,78,0.00,,,-99.99,WeatherLink 5.6,2013-06-12 02:30:00,
2013-06-11 22:00:00,82.8,75.2,29.96,SSW,202,1.0,6.0,78,0.00,,,-99.99,WeatherLink 5.6,2013-06-12 03:00:00,
2013-06-11 22:30:00,82.6,75.8,29.96,SW,225,2.0,11.0,80,0.00,,,-99.99,WeatherLink 5.6,2013-06-12 03:30:00,
2013-06-11 23:00:00,82.2,74.7,29.97,SW,225,2.0,7.0,78,0.00,,,-99.99,WeatherLink 5.6,2013-06-12 04:00:00,
2013-06-11 23:30:00,82.0,73.3,29.97,WSW,247,0.0,5.0,75,0.00,,,-99.99,WeatherLink 5.6,2013-06-12 04:30:00,